O3B FM6

Last updated on Sat Jul 18 2026 00:03:21 GMT+0000 (Coordinated Universal Time)

1 40081U 14038C 26198.46226985 -.00000025 00000+0 00000+0 0 9993 2 40081 0.0462 349.7711 0002607 126.7994 243.4522 5.00115729219332
UTC large
Height (km)
Speed (km/s)
/
Latitude / Longitude
Inclination (degrees)
Orbital Period (minutes)
Azimuth
Elevation
Range (km)
Doppler Factor

Next 0 passes for location: London (51.5072 / 0.1276)

No passes found over London.
O3B FM6